| time (UTC) | temp F | wind direction | speed MPH | gust MPH | rain 1hr in | rain 24hr in | rain mn in | humidity % | barometer mb |
| 20260905051532 | 58 | 35 | 0.0 | 4.0 | 0.00 | 0.00 | 0.00 | 41 | 1005.6 |
| 20260905050017 | 59 | 188 | 0.0 | 1.0 | 0.00 | 0.00 | 0.00 | 36 | 1004.8 |
| 20260905044517 | 60 | 211 | 0.0 | 0.0 | 0.00 | 0.00 | 0.00 | 36 | 1004.6 |
| 20260905043016 | 60 | 189 | 0.0 | 0.0 | 0.00 | 0.00 | 0.00 | 36 | 1004.6 |
| 20260905041517 | 61 | 230 | 0.0 | 0.0 | 0.00 | 0.00 | 0.00 | 37 | 1004.5 |
| 20260905040014 | 62 | 223 | 0.0 | 1.0 | 0.00 | 0.00 | 0.00 | 34 | 1004.6 |
| 20260905034521 | 63 | 207 | 0.0 | 0.0 | 0.00 | 0.00 | 0.00 | 33 | 1004.4 |
| 20260905033011 | 63 | 205 | 0.0 | 0.0 | 0.00 | 0.00 | 0.00 | 43 | 1004.2 |
| 20260905031513 | 67 | 211 | 0.0 | 0.0 | 0.00 | 0.00 | 0.00 | 31 | 1004.0 |
| 20260905030022 | 70 | 185 | 0.0 | 0.0 | 0.00 | 0.00 | 0.00 | 23 | 1003.7 |
| 20260905024510 | 72 | 187 | 0.0 | 0.0 | 0.00 | 0.00 | 0.00 | 22 | 1003.6 |
| 20260905023023 | 73 | 183 | 0.0 | 0.0 | 0.00 | 0.00 | 0.00 | 20 | 1003.3 |
| 20260905021511 | 74 | 181 | 0.0 | 0.0 | 0.00 | 0.00 | 0.00 | 21 | 1003.0 |
| 20260905020007 | 75 | 178 | 0.0 | 1.0 | 0.00 | 0.00 | 0.00 | 21 | 1002.8 |
| 20260905014508 | 76 | 225 | 0.0 | 0.0 | 0.00 | 0.00 | 0.00 | 20 | 1002.6 |
| 20260905013005 | 78 | 210 | 0.0 | 0.0 | 0.00 | 0.00 | 0.00 | 20 | 1002.4 |
| 20260905011505 | 80 | 215 | 0.0 | 2.0 | 0.00 | 0.00 | 0.00 | 17 | 1002.3 |
| 20260905010004 | 82 | 240 | 0.0 | 1.0 | 0.00 | 0.00 | 0.00 | 17 | 1002.1 |
| 20260905004504 | 83 | 248 | 0.0 | 3.0 | 0.00 | 0.00 | 0.00 | 16 | 1002.0 |
| 20260905003004 | 83 | 200 | 0.0 | 0.0 | 0.00 | 0.00 | 0.00 | 16 | 1001.9 |
| 20260905001504 | 83 | 264 | 0.0 | 3.0 | 0.00 | 0.00 | 0.00 | 14 | 1001.8 |
| 20260905000003 | 83 | 257 | 0.0 | 2.0 | 0.00 | 0.00 | 0.00 | 16 | 1001.7 |
| 20260904234504 | 84 | 243 | 0.0 | 1.0 | 0.00 | 0.00 | 0.00 | 15 | 1001.7 |
| 20260904233003 | 84 | 259 | 0.0 | 2.0 | 0.00 | 0.00 | 0.00 | 16 | 1001.6 |
| 20260904231501 | 84 | 196 | 0.0 | 4.0 | 0.00 | 0.00 | 0.00 | 15 | 1001.5 |
| 20260904224600 | 84 | 301 | 0.0 | 3.0 | 0.00 | 0.00 | 0.00 | 15 | 1001.6 |
| 20260904223107 | 84 | 281 | 0.0 | 2.0 | 0.00 | 0.00 | 0.00 | 15 | 1001.6 |
| 20260904221607 | 84 | 239 | 0.0 | 1.0 | 0.00 | 0.00 | 0.00 | 15 | 1001.6 |
| 20260904220159 | 85 | 244 | 0.0 | 2.0 | 0.00 | 0.00 | 0.00 | 16 | 1001.6 |
| 20260904214602 | 85 | 234 | 0.0 | 3.0 | 0.00 | 0.00 | 0.00 | 17 | 1001.7 |
| 20260904213056 | 84 | 219 | 1.0 | 6.0 | 0.00 | 0.00 | 0.00 | 14 | 1001.6 |
| 20260904211602 | 84 | 236 | 0.0 | 11.0 | 0.00 | 0.00 | 0.00 | 16 | 1001.5 |
| 20260904210053 | 82 | 319 | 0.0 | 1.0 | 0.00 | 0.00 | 0.00 | 15 | 1001.6 |
| 20260904204552 | 83 | 298 | 0.0 | 4.0 | 0.00 | 0.00 | 0.00 | 14 | 1001.6 |
| 20260904203051 | 83 | 232 | 0.0 | 6.0 | 0.00 | 0.00 | 0.00 | 14 | 1001.6 |
| 20260904201548 | 82 | 343 | 0.0 | 2.0 | 0.00 | 0.00 | 0.00 | 16 | 1001.6 |
| 20260904200054 | 82 | 301 | 0.0 | 1.0 | 0.00 | 0.00 | 0.00 | 15 | 1001.9 |
| 20260904194546 | 83 | 270 | 0.0 | 5.0 | 0.00 | 0.00 | 0.00 | 15 | 1001.9 |
| 20260904193047 | 82 | 275 | 0.0 | 1.0 | 0.00 | 0.00 | 0.00 | 16 | 1002.0 |
| 20260904191543 | 81 | 199 | 0.0 | 7.0 | 0.00 | 0.00 | 0.00 | 17 | 1002.0 |
| 20260904190041 | 82 | 319 | 0.0 | 1.0 | 0.00 | 0.00 | 0.00 | 19 | 1002.2 |
| 20260904184555 | 81 | 281 | 0.0 | 1.0 | 0.00 | 0.00 | 0.00 | 17 | 1002.5 |
| 20260904183036 | 82 | 204 | 0.0 | 2.0 | 0.00 | 0.00 | 0.00 | 16 | 1002.9 |
| 20260904181532 | 81 | 24 | 0.0 | 0.0 | 0.00 | 0.00 | 0.00 | 18 | 1002.9 |
| 20260904180028 | 80 | 227 | 0.0 | 1.0 | 0.00 | 0.00 | 0.00 | 17 | 1003.3 |
| 20260904174529 | 80 | 284 | 0.0 | 2.0 | 0.00 | 0.00 | 0.00 | 17 | 1003.2 |
| 20260904173025 | 80 | 247 | 0.0 | 4.0 | 0.00 | 0.00 | 0.00 | 18 | 1003.3 |
| 20260904171518 | 79 | 243 | 0.0 | 4.0 | 0.00 | 0.00 | 0.00 | 18 | 1003.3 |
| 20260904170018 | 78 | 306 | 0.0 | 3.0 | 0.00 | 0.00 | 0.00 | 17 | 1003.2 |
| 20260904164513 | 78 | 221 | 0.0 | 2.0 | 0.00 | 0.00 | 0.00 | 17 | 1003.4 |
| 20260904163009 | 78 | 179 | 0.0 | 4.0 | 0.00 | 0.00 | 0.00 | 16 | 1003.2 |
| 20260904161504 | 76 | 228 | 0.0 | 3.0 | 0.00 | 0.00 | 0.00 | 18 | 1003.1 |
| 20260904160100 | 74 | 238 | 0.0 | 3.0 | 0.00 | 0.00 | 0.00 | 23 | 1003.1 |
| 20260904154556 | 69 | 217 | 0.0 | 0.0 | 0.00 | 0.00 | 0.00 | 32 | 1003.2 |
| 20260904153100 | 66 | 217 | 0.0 | 0.0 | 0.00 | 0.00 | 0.00 | 35 | 1003.4 |
| 20260904151547 | 64 | 206 | 0.0 | 0.0 | 0.00 | 0.00 | 0.00 | 36 | 1003.4 |
| 20260904150045 | 62 | 205 | 0.0 | 0.0 | 0.00 | 0.00 | 0.00 | 38 | 1003.5 |
| 20260904144538 | 60 | 212 | 0.0 | 0.0 | 0.00 | 0.00 | 0.00 | 39 | 1003.7 |
| 20260904143033 | 58 | 205 | 0.0 | 0.0 | 0.00 | 0.00 | 0.00 | 41 | 1003.8 |
| 20260904141528 | 56 | 219 | 0.0 | 0.0 | 0.00 | 0.00 | 0.00 | 43 | 1003.9 |
| 20260904140025 | 53 | 219 | 0.0 | 0.0 | 0.00 | 0.00 | 0.00 | 47 | 1004.0 |
| 20260904134523 | 51 | 173 | 0.0 | 0.0 | 0.00 | 0.00 | 0.00 | 48 | 1003.9 |
| 20260904133021 | 50 | 194 | 0.0 | 0.0 | 0.00 | 0.00 | 0.00 | 50 | 1003.9 |
| 20260904131519 | 50 | 197 | 0.0 | 0.0 | 0.00 | 0.00 | 0.00 | 49 | 1003.8 |
| 20260904130017 | 49 | 186 | 0.0 | 0.0 | 0.00 | 0.00 | 0.00 | 51 | 1003.6 |
| 20260904124515 | 48 | 205 | 0.0 | 1.0 | 0.00 | 0.00 | 0.00 | 52 | 1003.5 |
| 20260904123014 | 48 | 195 | 0.0 | 0.0 | 0.00 | 0.00 | 0.00 | 50 | 1003.3 |
| 20260904121518 | 48 | 211 | 0.0 | 0.0 | 0.00 | 0.00 | 0.00 | 52 | 1003.3 |
| 20260904120012 | 49 | 226 | 0.0 | 3.0 | 0.00 | 0.00 | 0.00 | 51 | 1003.1 |
| 20260904114515 | 49 | 214 | 0.0 | 1.0 | 0.00 | 0.00 | 0.00 | 49 | 1003.0 |
| 20260904113008 | 49 | 193 | 0.0 | 1.0 | 0.00 | 0.00 | 0.00 | 50 | 1003.1 |
| 20260904111506 | 49 | 212 | 0.0 | 0.0 | 0.00 | 0.00 | 0.00 | 49 | 1003.1 |
| 20260904110017 | 49 | 224 | 0.0 | 0.0 | 0.00 | 0.00 | 0.00 | 50 | 1003.0 |
| 20260904104504 | 50 | 209 | 0.0 | 1.0 | 0.00 | 0.00 | 0.00 | 48 | 1002.9 |
| 20260904103002 | 51 | 208 | 0.0 | 1.0 | 0.00 | 0.00 | 0.00 | 46 | 1002.8 |
| 20260904101502 | 51 | 163 | 0.0 | 1.0 | 0.00 | 0.00 | 0.00 | 47 | 1002.8 |
| 20260904100101 | 51 | 186 | 0.0 | 2.0 | 0.00 | 0.00 | 0.00 | 48 | 1002.7 |
| 20260904094559 | 50 | 202 | 0.0 | 2.0 | 0.00 | 0.00 | 0.00 | 48 | 1002.7 |
| 20260904093057 | 51 | 215 | 0.0 | 5.0 | 0.00 | 0.00 | 0.00 | 48 | 1002.5 |
| 20260904091557 | 51 | 193 | 0.0 | 2.0 | 0.00 | 0.00 | 0.00 | 49 | 1002.6 |
| 20260904090054 | 51 | 228 | 0.0 | 2.0 | 0.00 | 0.00 | 0.00 | 46 | 1002.5 |
| 20260904084557 | 52 | 233 | 0.0 | 4.0 | 0.00 | 0.00 | 0.00 | 46 | 1002.6 |
| 20260904083057 | 52 | 234 | 0.0 | 2.0 | 0.00 | 0.00 | 0.00 | 46 | 1002.6 |
| 20260904081551 | 52 | 208 | 0.0 | 2.0 | 0.00 | 0.00 | 0.00 | 46 | 1003.0 |
| 20260904080047 | 53 | 194 | 0.0 | 0.0 | 0.00 | 0.00 | 0.00 | 45 | 1003.0 |
| 20260904074554 | 53 | 213 | 0.0 | 2.0 | 0.00 | 0.00 | 0.00 | 46 | 1003.1 |
| 20260904073046 | 54 | 215 | 0.0 | 5.0 | 0.00 | 0.00 | 0.00 | 45 | 1003.4 |
| 20260904071541 | 54 | 221 | 0.0 | 0.0 | 0.00 | 0.00 | 0.00 | 44 | 1003.5 |
| 20260904070039 | 54 | 211 | 0.0 | 2.0 | 0.00 | 0.00 | 0.00 | 43 | 1003.3 |
| 20260904064539 | 55 | 211 | 0.0 | 1.0 | 0.00 | 0.00 | 0.00 | 43 | 1003.3 |
| 20260904063052 | 56 | 205 | 0.0 | 2.0 | 0.00 | 0.00 | 0.00 | 41 | 1003.3 |
| 20260904061537 | 56 | 209 | 0.0 | 3.0 | 0.00 | 0.00 | 0.00 | 42 | 1003.2 |
| 20260904060048 | 55 | 204 | 0.0 | 0.0 | 0.00 | 0.00 | 0.00 | 43 | 1003.4 |
| 20260904054530 | 55 | 207 | 0.0 | 2.0 | 0.00 | 0.00 | 0.00 | 45 | 1003.3 |
| 20260904053033 | 56 | 214 | 0.0 | 2.0 | 0.00 | 0.00 | 0.00 | 42 | 1003.3 |